SENTINEL-2B

Last updated on Wed Jul 09 2025 00:02:29 GMT+0000 (Coordinated Universal Time)

1 42063U 17013A 25189.50125873 .00000076 00000+0 45646-4 0 9994 2 42063 98.5693 264.2241 0001185 99.4550 260.6767 14.30817164435499
UTC large
Height (km)
Speed (km/s)
/
Latitude / Longitude
Inclination (degrees)
Orbital Period (minutes)
Azimuth
Elevation
Range (km)
Doppler Factor

Next 0 passes for location: London (51.5072 / 0.1276)

Sorry there are no passes over London.